User: anonymous   Login
Location: Unspecified
(0.0000°N, 0.0000°E)
Time: 07:16:58
(UTC+00:00)
Language:

HODOYOSHI 1 - Orbit

View from above orbital plane
View from above orbital plane
View from above satellite
View from above satellite

Ground track
Ground track

The orbit data is extracted from the following two-line orbital elements,

1 40299U 14070B   17178.91187698 +.00000604 +00000-0 +29226-4 0  9994
2 40299 097.4036 261.4888 0014820 057.7556 068.0301 15.22270185146576
Epoch (UTC): 27 June 2017 21:53:06
Eccentricity: 0.0014820
inclination: 97.4036°
perigee height: 489 km
apogee height: 509 km
right ascension of ascending node: 261.4888°
argument of perigee: 57.7556°
revolutions per day: 15.22270185
mean anomaly at epoch: 68.0301°
orbit number at epoch: 14657

The dashed part of the orbit path shows where the satellite is in the earth's shadow,  

DLR